TimeCDT,TemperatureF,Dew PointF,Humidity,Sea Level PressureIn,VisibilityMPH,Wind Direction,Wind SpeedMPH,Gust SpeedMPH,PrecipitationIn,Events,Conditions,WindDirDegrees,DateUTC
12:56 AM,61.0,59.0,93,29.92,-9999.0,Calm,Calm,-,N/A,,Unknown,0,2013-07-25 05:56:00
1:56 AM,59.0,57.0,93,29.91,-9999.0,Calm,Calm,-,N/A,,Unknown,0,2013-07-25 06:56:00
2:56 AM,59.0,57.0,93,29.91,-9999.0,Calm,Calm,-,N/A,,Unknown,0,2013-07-25 07:56:00
3:56 AM,57.0,55.0,93,29.90,-9999.0,Calm,Calm,-,N/A,,Unknown,0,2013-07-25 08:56:00
4:56 AM,57.9,55.9,93,29.90,-9999.0,Calm,Calm,-,N/A,,Unknown,0,2013-07-25 09:56:00
5:56 AM,57.0,55.0,93,29.90,-9999.0,Calm,Calm,-,N/A,,Unknown,0,2013-07-25 10:56:00
7:56 AM,63.0,61.0,93,29.90,-9999.0,Calm,Calm,-,0.03,,Unknown,0,2013-07-25 12:56:00
8:56 AM,64.9,62.1,90,29.92,-9999.0,North,4.6,-,N/A,,Unknown,350,2013-07-25 13:56:00
9:56 AM,64.0,61.0,90,29.96,-9999.0,WNW,5.8,-,0.05,,Unknown,300,2013-07-25 14:56:00
10:56 AM,68.0,63.0,84,29.96,-9999.0,WNW,4.6,-,0.02,,Unknown,290,2013-07-25 15:56:00
11:56 AM,66.9,61.0,81,29.95,-9999.0,North,6.9,-,N/A,,Unknown,360,2013-07-25 16:56:00
12:56 PM,71.1,63.0,75,29.95,-9999.0,NNW,8.1,-,N/A,,Unknown,340,2013-07-25 17:56:00
1:56 PM,77.0,61.0,58,29.93,-9999.0,NW,13.8,-,N/A,,Unknown,320,2013-07-25 18:56:00
2:56 PM,79.0,62.1,56,29.91,-9999.0,North,10.4,-,N/A,,Unknown,350,2013-07-25 19:56:00
3:56 PM,81.0,63.0,54,29.91,-9999.0,North,10.4,-,N/A,,Unknown,350,2013-07-25 20:56:00
4:56 PM,80.1,57.9,47,29.90,-9999.0,NNW,9.2,19.6,N/A,,Unknown,330,2013-07-25 21:56:00
5:56 PM,79.0,59.0,50,29.89,-9999.0,NW,9.2,-,N/A,,Unknown,320,2013-07-25 22:56:00
6:56 PM,78.1,59.0,52,29.92,-9999.0,NNW,12.7,-,N/A,,Unknown,340,2013-07-25 23:56:00
7:56 PM,75.0,57.9,55,29.89,-9999.0,North,10.4,19.6,N/A,,Unknown,350,2013-07-26 00:56:00
8:56 PM,69.1,55.0,61,29.92,-9999.0,North,10.4,-,N/A,,Unknown,350,2013-07-26 01:56:00
9:56 PM,64.0,55.0,73,29.95,-9999.0,NNW,6.9,-,N/A,,Unknown,340,2013-07-26 02:56:00
10:56 PM,61.0,52.0,72,29.96,-9999.0,NW,8.1,-,N/A,,Unknown,320,2013-07-26 03:56:00
11:56 PM,61.0,51.1,70,29.97,-9999.0,NW,9.2,-,N/A,,Unknown,320,2013-07-26 04:56:00